SP1 KPYM-ZZZZ

Flight info

Callsign SP1
Flight time N/A
Altitude 8000
Route VFR
Aircraft C208/M-VGDW/C

Departure

Time 2026-04-28 00:25
Airport Plymouth Municipal Airport (KPYM)

Arrival

Time N/A
Airport ZZZZ
Time Latitude Longitude Altitude Speed Heading
2026-04-28 00:17 41.90768 -70.73028 145 ft 0 kts 308°
2026-04-28 00:19 41.90796 -70.73037 145 ft 7 kts 323°
2026-04-28 00:20 41.90825 -70.73085 145 ft 7 kts 311°
2026-04-28 00:20 41.90850 -70.73121 146 ft 1 kts 311°
2026-04-28 00:20 41.90856 -70.73131 147 ft 1 kts 311°
2026-04-28 00:20 41.90882 -70.73172 148 ft 8 kts 310°
2026-04-28 00:21 41.90921 -70.73214 148 ft 7 kts
2026-04-28 00:21 41.90950 -70.73186 147 ft 9 kts 40°
2026-04-28 00:21 41.90995 -70.73136 146 ft 8 kts 38°
2026-04-28 00:21 41.91037 -70.73091 145 ft 7 kts 40°
2026-04-28 00:22 41.91072 -70.73050 146 ft 6 kts 41°
2026-04-28 00:22 41.91103 -70.73013 146 ft 4 kts 40°
2026-04-28 00:22 41.91109 -70.73007 146 ft 0 kts 40°
2026-04-28 00:23 41.91111 -70.73005 146 ft 1 kts 40°
2026-04-28 00:23 41.91145 -70.72967 145 ft 9 kts 38°
2026-04-28 00:23 41.91196 -70.72916 144 ft 8 kts 42°
2026-04-28 00:23 41.91231 -70.72873 147 ft 6 kts 36°
2026-04-28 00:24 41.91265 -70.72837 149 ft 8 kts 38°
2026-04-28 00:24 41.91309 -70.72788 153 ft 7 kts 40°
2026-04-28 00:24 41.91347 -70.72747 155 ft 11 kts 39°
2026-04-28 00:24 41.91350 -70.72664 157 ft 11 kts 145°
2026-04-28 00:25 41.91300 -70.72687 156 ft 25 kts 218°
2026-04-28 00:25 41.90911 -70.73093 230 ft 98 kts 214°
2026-04-28 00:25 41.90320 -70.73669 585 ft 111 kts 219°
2026-04-28 00:25 41.89629 -70.74338 759 ft 141 kts 214°
2026-04-28 00:26 41.89010 -70.75491 818 ft 164 kts 245°
2026-04-28 00:26 41.88507 -70.76888 915 ft 166 kts 244°
2026-04-28 00:26 41.87995 -70.78294 1003 ft 168 kts 245°
2026-04-28 00:26 41.87475 -70.79715 1063 ft 172 kts 245°
2026-04-28 00:27 41.87012 -70.81192 1156 ft 172 kts 258°
2026-04-28 00:27 41.86792 -70.82758 1315 ft 167 kts 263°
2026-04-28 00:27 41.86595 -70.84266 1551 ft 165 kts 262°
2026-04-28 00:27 41.86389 -70.85785 1725 ft 166 kts 263°
2026-04-28 00:28 41.86180 -70.87313 1888 ft 167 kts 263°
2026-04-28 00:28 41.85972 -70.88845 2078 ft 165 kts 262°
2026-04-28 00:28 41.85886 -70.90364 2086 ft 162 kts 285°
2026-04-28 00:28 41.86345 -70.91716 2098 ft 159 kts 304°
2026-04-28 00:29 41.86874 -70.92946 1993 ft 149 kts 305°
2026-04-28 00:29 41.87367 -70.94103 1989 ft 138 kts 305°
2026-04-28 00:29 41.87873 -70.95160 1992 ft 137 kts 310°
2026-04-28 00:29 41.88466 -70.96268 1999 ft 156 kts 311°
2026-04-28 00:30 41.89126 -70.97480 1998 ft 164 kts 311°